Voltar ao catálogo

STARLINK-36700

AtivoComunicaçõesSSO
NORAD 67662·PAYLOAD·🇺🇸 United States

Lançado Feb 2, 2026 de Vandenberg Space Force Base

Loading…

Próximas Passagens (próximas 24 horas)

TLE

AtualizadoSource: CelesTrak SupGP

Época: Sep 15, 2026, 03:32 UTC

1 67662C 26022Q   26258.14770833 -.00050877  00000+0 -15795-2 0  2580
2 67662  97.2844 289.8600 0001230  86.6602 199.0021 15.33461749    16

Acompanhe STARLINK-36700 em tempo real com AllMySat

Download on the App Store